Location: *
(51.2167°N, 10.0667°E)
Time: 08:28:34
(UTC+00:00)

IRS-1A Rocket - Pass Details

Date: 12 December 2019
Orbit: 851 x 931 km, 99.2° (Epoch: 28 January)

Event Time Altitude Azimuth Distance (km) Brightness Sun altitude
Exits shadow 18:01:43 61° 76° (ENE) 1,049 4.3 -25.2°
Maximum altitude 18:01:52 62° 68° (ENE) 1,047 4.3 -25.3°
Drops below altitude 10° 18:07:43 10° 349° (N) 2,652 6.8 -26.2°
Sets 18:10:10 0° 346° (NNW) 3,599 7.6 -26.5°
